DAL1244 KSLC-KLAS

Flight info

Callsign DAL1244
Flight time 0h 57m
Altitude 34000
Route ARCHZ1 MLF STEWW CHOWW4
Aircraft A321/M-SDE3FGHIRWY/LB1

Departure

Time 2026-05-04 04:27
Airport Salt Lake City International Airport (KSLC)

Arrival

Time 2026-05-04 05:24
Airport Harry Reid International Airport (KLAS)
Time Latitude Longitude Altitude Speed Heading
2026-05-04 04:09 40.78595 -111.98994 4234 ft 0 kts 176°
2026-05-04 04:17 40.78598 -111.98994 4233 ft 3 kts 176°
2026-05-04 04:17 40.78617 -111.98996 4233 ft 3 kts 176°
2026-05-04 04:17 40.78636 -111.98998 4232 ft 3 kts 182°
2026-05-04 04:18 40.78655 -111.98993 4232 ft 3 kts 213°
2026-05-04 04:18 40.78670 -111.98975 4232 ft 3 kts 245°
2026-05-04 04:18 40.78675 -111.98952 4233 ft 1 kts 272°
2026-05-04 04:18 40.78675 -111.98951 4233 ft 0 kts 274°
2026-05-04 04:19 40.78675 -111.98959 4233 ft 3 kts 273°
2026-05-04 04:19 40.78676 -111.99000 4234 ft 5 kts 273°
2026-05-04 04:20 40.78677 -111.99029 4233 ft 1 kts 272°
2026-05-04 04:20 40.78677 -111.99053 4234 ft 6 kts 270°
2026-05-04 04:20 40.78675 -111.99143 4236 ft 11 kts 267°
2026-05-04 04:20 40.78673 -111.99230 4237 ft 8 kts 267°
2026-05-04 04:21 40.78669 -111.99295 4238 ft 9 kts 266°
2026-05-04 04:21 40.78684 -111.99426 4238 ft 19 kts 297°
2026-05-04 04:21 40.78783 -111.99479 4241 ft 14 kts 357°
2026-05-04 04:21 40.78872 -111.99490 4240 ft 12 kts 355°
2026-05-04 04:22 40.78973 -111.99502 4239 ft 18 kts 356°
2026-05-04 04:22 40.79112 -111.99519 4236 ft 23 kts 356°
2026-05-04 04:22 40.79288 -111.99538 4234 ft 28 kts 355°
2026-05-04 04:22 40.79483 -111.99561 4230 ft 28 kts 355°
2026-05-04 04:23 40.79671 -111.99581 4230 ft 26 kts 354°
2026-05-04 04:23 40.79784 -111.99596 4232 ft 24 kts 355°
2026-05-04 04:23 40.79940 -111.99615 4233 ft 21 kts 355°
2026-05-04 04:23 40.80072 -111.99629 4238 ft 17 kts 355°
2026-05-04 04:24 40.80232 -111.99648 4237 ft 23 kts 354°
2026-05-04 04:24 40.80354 -111.99663 4236 ft 27 kts 355°
2026-05-04 04:24 40.80537 -111.99682 4235 ft 26 kts 355°
2026-05-04 04:24 40.80710 -111.99703 4229 ft 16 kts 353°
2026-05-04 04:25 40.80775 -111.99771 4229 ft 9 kts 271°
2026-05-04 04:25 40.80774 -111.99780 4230 ft 0 kts 264°
2026-05-04 04:25 40.80772 -111.99800 4230 ft 8 kts 263°
2026-05-04 04:25 40.80765 -111.99896 4231 ft 10 kts 264°
2026-05-04 04:26 40.80740 -111.99923 4232 ft 5 kts 188°
2026-05-04 04:26 40.80632 -111.99913 4233 ft 40 kts 175°
2026-05-04 04:26 40.80125 -111.99852 4235 ft 103 kts 175°
2026-05-04 04:26 40.79233 -111.99748 4234 ft 152 kts 175°
2026-05-04 04:27 40.78051 -111.99609 4301 ft 184 kts 174°
2026-05-04 04:27 40.76809 -111.99467 5073 ft 177 kts 174°
2026-05-04 04:27 40.75566 -111.99326 5700 ft 181 kts 175°
2026-05-04 04:27 40.74304 -111.99174 6049 ft 187 kts 174°
2026-05-04 04:28 40.72944 -111.99005 6096 ft 207 kts 174°
2026-05-04 04:28 40.71452 -111.98824 6212 ft 222 kts 174°
2026-05-04 04:28 40.69874 -111.98614 6415 ft 233 kts 173°
2026-05-04 04:28 40.68234 -111.98366 6573 ft 245 kts 172°
2026-05-04 04:29 40.66456 -111.98086 6628 ft 269 kts 172°
2026-05-04 04:29 40.64551 -111.97777 6982 ft 280 kts 172°
2026-05-04 04:29 40.62594 -111.97477 7569 ft 285 kts 173°
2026-05-04 04:29 40.60609 -111.97207 8220 ft 287 kts 174°
2026-05-04 04:30 40.58615 -111.96945 8898 ft 290 kts 174°
2026-05-04 04:30 40.56600 -111.96673 9564 ft 292 kts 174°
2026-05-04 04:30 40.54577 -111.96393 10159 ft 297 kts 174°
2026-05-04 04:30 40.52444 -111.96095 10291 ft 319 kts 175°
2026-05-04 04:31 40.50166 -111.95777 10420 ft 338 kts 174°
2026-05-04 04:31 40.47796 -111.95444 10868 ft 345 kts 174°
2026-05-04 04:31 40.45396 -111.95115 11457 ft 348 kts 175°
2026-05-04 04:31 40.42977 -111.94877 12079 ft 350 kts 177°
2026-05-04 04:32 40.40535 -111.94709 12704 ft 352 kts 178°
2026-05-04 04:32 40.38078 -111.94569 13342 ft 354 kts 179°
2026-05-04 04:32 40.35606 -111.94435 13946 ft 357 kts 179°
2026-05-04 04:32 40.33119 -111.94293 14503 ft 360 kts 179°
2026-05-04 04:33 40.30610 -111.94136 15023 ft 363 kts 179°
2026-05-04 04:33 40.28068 -111.93970 15552 ft 366 kts 179°
2026-05-04 04:33 40.25521 -111.94089 16081 ft 368 kts 188°
2026-05-04 04:33 40.22964 -111.94496 16610 ft 371 kts 188°
2026-05-04 04:34 40.20394 -111.94901 17144 ft 374 kts 188°
2026-05-04 04:34 40.17796 -111.95308 17669 ft 377 kts 188°
2026-05-04 04:34 40.15184 -111.95718 18176 ft 380 kts 188°
2026-05-04 04:34 40.12544 -111.96133 18606 ft 383 kts 188°
2026-05-04 04:35 40.09892 -111.96535 19044 ft 385 kts 188°
2026-05-04 04:35 40.07213 -111.96929 19469 ft 388 kts 188°
2026-05-04 04:35 40.04529 -111.97315 19898 ft 390 kts 187°
2026-05-04 04:35 40.01822 -111.97701 20318 ft 393 kts 187°
2026-05-04 04:36 39.99095 -111.98092 20734 ft 395 kts 188°
2026-05-04 04:36 39.96353 -111.98490 21157 ft 397 kts 188°
2026-05-04 04:36 39.93597 -111.98888 21581 ft 400 kts 188°
2026-05-04 04:36 39.90825 -111.99294 21976 ft 402 kts 188°
2026-05-04 04:37 39.82397 -112.00525 23173 ft 410 kts 188°
2026-05-04 04:37 39.79554 -112.00940 23540 ft 412 kts 188°
2026-05-04 04:38 39.76699 -112.01356 23883 ft 414 kts 188°
2026-05-04 04:38 39.73831 -112.01773 24228 ft 416 kts 188°
2026-05-04 04:38 39.70953 -112.02190 24572 ft 417 kts 188°
2026-05-04 04:38 39.68061 -112.02607 24910 ft 419 kts 188°
2026-05-04 04:39 39.65158 -112.03024 25249 ft 421 kts 188°
2026-05-04 04:39 39.62240 -112.03446 25573 ft 422 kts 188°
2026-05-04 04:39 39.59317 -112.03870 25898 ft 424 kts 188°
2026-05-04 04:39 39.56380 -112.04297 26225 ft 426 kts 188°
2026-05-04 04:40 39.53428 -112.04722 26542 ft 427 kts 188°
2026-05-04 04:40 39.50463 -112.05147 26852 ft 429 kts 188°
2026-05-04 04:40 39.47490 -112.05573 27161 ft 431 kts 188°
2026-05-04 04:40 39.44502 -112.06004 27493 ft 432 kts 188°
2026-05-04 04:41 39.41511 -112.06435 27807 ft 434 kts 188°
2026-05-04 04:41 39.38508 -112.06864 28101 ft 435 kts 188°
2026-05-04 04:41 39.35485 -112.07296 28392 ft 437 kts 188°
2026-05-04 04:41 39.32462 -112.07726 28661 ft 439 kts 188°
2026-05-04 04:42 39.29419 -112.08158 28932 ft 441 kts 188°
2026-05-04 04:42 39.26364 -112.08590 29188 ft 442 kts 188°
2026-05-04 04:42 39.23297 -112.09022 29460 ft 444 kts 188°
2026-05-04 04:42 39.20229 -112.09453 29750 ft 445 kts 188°
2026-05-04 04:43 39.17134 -112.09893 30001 ft 447 kts 189°
2026-05-04 04:43 39.14095 -112.10692 30237 ft 446 kts 198°
2026-05-04 04:43 39.11204 -112.12099 30574 ft 443 kts 207°
2026-05-04 04:43 39.08506 -112.13985 30939 ft 441 kts 211°
2026-05-04 04:44 39.05848 -112.15933 31297 ft 439 kts 211°
2026-05-04 04:44 39.03191 -112.17878 31661 ft 438 kts 211°
2026-05-04 04:44 39.00547 -112.19810 32029 ft 437 kts 211°
2026-05-04 04:44 38.97909 -112.21732 32403 ft 435 kts 212°
2026-05-04 04:45 38.95282 -112.23643 32758 ft 434 kts 212°
2026-05-04 04:45 38.92658 -112.25549 33106 ft 433 kts 212°
2026-05-04 04:45 38.90037 -112.27452 33437 ft 432 kts 212°
2026-05-04 04:47 38.74563 -112.38656 33925 ft 421 kts 212°
2026-05-04 04:47 38.69454 -112.42347 33900 ft 422 kts 212°
2026-05-04 04:48 38.64339 -112.46028 33869 ft 422 kts 212°
2026-05-04 04:49 38.51534 -112.55232 33856 ft 422 kts 212°
2026-05-04 04:49 38.46413 -112.58898 33866 ft 422 kts 212°
2026-05-04 04:50 38.41285 -112.62556 33884 ft 422 kts 212°
2026-05-04 04:50 38.36170 -112.66204 33892 ft 421 kts 212°
2026-05-04 04:51 38.31070 -112.69846 33890 ft 420 kts 212°
2026-05-04 04:51 38.25969 -112.73488 33889 ft 420 kts 212°
2026-05-04 04:52 38.20831 -112.77137 33878 ft 420 kts 212°
2026-05-04 04:52 38.15728 -112.80751 33867 ft 419 kts 212°
2026-05-04 04:53 38.10665 -112.84335 33848 ft 419 kts 212°
2026-05-04 04:53 38.05543 -112.87963 33845 ft 419 kts 212°
2026-05-04 04:54 38.00450 -112.91563 33852 ft 419 kts 212°
2026-05-04 04:54 37.95360 -112.95147 33889 ft 419 kts 212°
2026-05-04 04:55 37.90267 -112.98728 33921 ft 419 kts 212°
2026-05-04 04:55 37.85169 -113.02305 33963 ft 419 kts 212°
2026-05-04 04:56 37.80079 -113.05879 33992 ft 419 kts 212°
2026-05-04 04:56 37.75210 -113.09873 34003 ft 417 kts 217°
2026-05-04 04:57 37.70427 -113.14029 34021 ft 418 kts 217°
2026-05-04 04:57 37.65637 -113.18188 34022 ft 418 kts 216°
2026-05-04 04:58 37.60851 -113.22334 33357 ft 415 kts 216°
2026-05-04 04:58 37.58477 -113.24384 32716 ft 414 kts 216°
2026-05-04 04:58 37.56104 -113.26435 32125 ft 413 kts 216°
2026-05-04 04:59 37.53728 -113.28489 31908 ft 416 kts 216°
2026-05-04 04:59 37.51337 -113.30554 31923 ft 420 kts 216°
2026-05-04 04:59 37.46437 -113.34781 31870 ft 433 kts 216°
2026-05-04 05:00 37.41447 -113.39072 31823 ft 435 kts 215°
2026-05-04 05:01 37.33955 -113.45503 31859 ft 432 kts 214°
2026-05-04 05:01 37.29815 -113.49062 31838 ft 434 kts 215°
2026-05-04 05:02 37.24810 -113.53291 31859 ft 434 kts 211°
2026-05-04 05:02 37.19365 -113.56589 31881 ft 435 kts 206°
2026-05-04 05:03 37.13880 -113.59796 31900 ft 435 kts 206°
2026-05-04 05:03 37.11134 -113.61408 31278 ft 438 kts 206°
2026-05-04 05:04 37.02935 -113.66203 29644 ft 428 kts 206°
2026-05-04 05:04 37.00254 -113.67766 29116 ft 423 kts 206°
2026-05-04 05:04 36.97598 -113.69311 28588 ft 418 kts 206°
2026-05-04 05:06 36.79747 -113.79719 24987 ft 391 kts 206°
2026-05-04 05:06 36.77293 -113.81146 24512 ft 387 kts 206°
2026-05-04 05:06 36.74894 -113.82539 24055 ft 384 kts 206°
2026-05-04 05:07 36.72479 -113.83942 23605 ft 381 kts 206°
2026-05-04 05:07 36.70054 -113.85351 23087 ft 378 kts 206°
2026-05-04 05:07 36.67679 -113.86730 22615 ft 374 kts 206°
2026-05-04 05:09 36.52531 -114.02074 18977 ft 351 kts 231°
2026-05-04 05:09 36.51044 -114.04475 18511 ft 350 kts 231°
2026-05-04 05:10 36.49561 -114.06861 18059 ft 349 kts 231°
2026-05-04 05:10 36.48076 -114.09245 17558 ft 348 kts 230°
2026-05-04 05:10 36.46601 -114.11611 17100 ft 345 kts 230°
2026-05-04 05:10 36.45135 -114.13963 16665 ft 343 kts 230°
2026-05-04 05:11 36.43682 -114.16293 16350 ft 339 kts 230°
2026-05-04 05:11 36.42248 -114.18592 16120 ft 333 kts 230°
2026-05-04 05:11 36.40853 -114.20830 15984 ft 322 kts 230°
2026-05-04 05:11 36.39503 -114.23000 15747 ft 314 kts 230°
2026-05-04 05:12 36.38153 -114.25151 15497 ft 309 kts 230°
2026-05-04 05:12 36.36842 -114.27216 15175 ft 308 kts 229°
2026-05-04 05:12 36.35516 -114.29289 14797 ft 306 kts 229°
2026-05-04 05:12 36.34193 -114.31353 14416 ft 305 kts 229°
2026-05-04 05:13 36.32873 -114.33414 14045 ft 305 kts 229°
2026-05-04 05:13 36.31557 -114.35468 13678 ft 304 kts 229°
2026-05-04 05:13 36.30245 -114.37517 13282 ft 303 kts 229°
2026-05-04 05:13 36.28936 -114.39560 12886 ft 302 kts 229°
2026-05-04 05:14 36.27616 -114.41621 12501 ft 301 kts 229°
2026-05-04 05:14 36.26341 -114.43616 12165 ft 299 kts 229°
2026-05-04 05:14 36.25033 -114.45664 11779 ft 298 kts 229°
2026-05-04 05:14 36.23743 -114.47665 11411 ft 297 kts 229°
2026-05-04 05:15 36.22454 -114.49645 11058 ft 295 kts 229°
2026-05-04 05:15 36.21181 -114.51589 10727 ft 292 kts 228°
2026-05-04 05:15 36.19882 -114.53568 10358 ft 292 kts 228°
2026-05-04 05:15 36.18610 -114.55506 9982 ft 290 kts 228°
2026-05-04 05:16 36.17342 -114.57437 9636 ft 289 kts 228°
2026-05-04 05:16 36.16082 -114.59364 9317 ft 286 kts 229°
2026-05-04 05:16 36.14832 -114.61278 8941 ft 285 kts 229°
2026-05-04 05:16 36.13600 -114.63167 8717 ft 280 kts 229°
2026-05-04 05:17 36.12381 -114.65030 8532 ft 278 kts 228°
2026-05-04 05:17 36.11178 -114.66867 8413 ft 269 kts 229°
2026-05-04 05:17 36.10027 -114.68625 8308 ft 257 kts 229°
2026-05-04 05:17 36.08929 -114.70299 8230 ft 243 kts 229°
2026-05-04 05:18 36.07931 -114.71933 8052 ft 236 kts 237°
2026-05-04 05:18 36.07379 -114.73832 7763 ft 237 kts 258°
2026-05-04 05:18 36.07317 -114.75869 7478 ft 238 kts 267°
2026-05-04 05:18 36.07327 -114.77903 7180 ft 236 kts 267°
2026-05-04 05:19 36.07334 -114.79925 6882 ft 235 kts 267°
2026-05-04 05:19 36.07339 -114.81941 6602 ft 234 kts 267°
2026-05-04 05:19 36.07343 -114.83946 6309 ft 233 kts 267°
2026-05-04 05:19 36.07347 -114.85944 6013 ft 232 kts 267°
2026-05-04 05:20 36.07350 -114.87930 5716 ft 231 kts 267°
2026-05-04 05:20 36.07353 -114.89917 5416 ft 230 kts 267°
2026-05-04 05:20 36.07356 -114.91876 5124 ft 224 kts 267°
2026-05-04 05:20 36.07359 -114.93752 4851 ft 212 kts 268°
2026-05-04 05:21 36.07361 -114.95531 4576 ft 203 kts 268°
2026-05-04 05:21 36.07363 -114.97243 4335 ft 197 kts 268°
2026-05-04 05:21 36.07363 -114.98918 4093 ft 194 kts 268°
2026-05-04 05:21 36.07364 -115.00582 3848 ft 194 kts 268°
2026-05-04 05:22 36.07365 -115.02240 3612 ft 191 kts 267°
2026-05-04 05:22 36.07367 -115.03790 3379 ft 170 kts 268°
2026-05-04 05:22 36.07367 -115.05196 3180 ft 159 kts 268°
2026-05-04 05:22 36.07367 -115.06543 3037 ft 156 kts 267°
2026-05-04 05:23 36.07367 -115.07874 2877 ft 152 kts 267°
2026-05-04 05:23 36.07366 -115.09171 2654 ft 151 kts 268°
2026-05-04 05:23 36.07369 -115.10459 2430 ft 149 kts 268°
2026-05-04 05:23 36.07367 -115.11722 2241 ft 147 kts 266°
2026-05-04 05:24 36.07364 -115.12993 2082 ft 147 kts 268°
2026-05-04 05:24 36.07360 -115.14109 2105 ft 107 kts 270°
2026-05-04 05:24 36.07364 -115.14796 2127 ft 56 kts 270°
2026-05-04 05:24 36.07366 -115.15156 2132 ft 29 kts 272°
2026-05-04 05:25 36.07396 -115.15347 2141 ft 20 kts 295°
2026-05-04 05:25 36.07453 -115.15473 2147 ft 14 kts 300°
2026-05-04 05:25 36.07489 -115.15552 2153 ft 7 kts 300°
2026-05-04 05:25 36.07509 -115.15587 2155 ft 8 kts 308°
2026-05-04 05:26 36.07585 -115.15683 2161 ft 23 kts 316°
2026-05-04 05:26 36.07711 -115.15818 2159 ft 22 kts 336°
2026-05-04 05:26 36.07815 -115.15825 2162 ft 10 kts
2026-05-04 05:26 36.07872 -115.15793 2159 ft 10 kts 63°
2026-05-04 05:27 36.07876 -115.15706 2162 ft 13 kts 89°
2026-05-04 05:28 36.07825 -115.14237 2109 ft 17 kts 90°
2026-05-04 05:29 36.07891 -115.14147 2105 ft 12 kts 34°
2026-05-04 05:29 36.07910 -115.14050 2102 ft 12 kts 89°
2026-05-04 05:29 36.07912 -115.13941 2099 ft 13 kts 78°
2026-05-04 05:29 36.07971 -115.13886 2096 ft 12 kts 343°
2026-05-04 05:31 36.08019 -115.13936 2096 ft 0 kts 315°